Location: *
(43.9905°S, 176.4941°W)
Time: 11:26:44
(UTC+00:00)

Okean 2 Rocket - Pass Details

Date: 08 December 2019
Orbit: 618 x 640 km, 82.5° (Epoch: 19 January)

Event Time Altitude Azimuth Distance (km) Brightness Sun altitude
Rises 08:19:10 0° 337° (NNW) 2,944 6.3 -9.3°
Reaches altitude 10° 08:21:29 10° 330° (NNW) 2,044 5.6 -9.6°
Maximum altitude 08:25:50 44° 257° (WSW) 899 4.4 -10.2°
Drops below altitude 10° 08:30:14 10° 184° (S) 2,067 6.5 -10.7°
Sets 08:32:36 0° 177° (S) 2,983 7.3 -11.0°
